EA4DB Madrid ES current weather conditions

sailwx.info

Wind from 135 at 1 knots gusting 3

Air temperature 16.1° C
Dewpoint 10.2° C

Last reported at 2014-Nov-23 04:46 UTC.
Time now 2014-Nov-23 06:03 UTC

Location: N 40°25' W 003°39'.
View on Google Maps.

See reports from other nearby stations

  
Tides and Currents Weather Stations Pressure Air Temp Water Temp Dewpoint Dewpoint Depression Visibility Wind Speed Wind Dir Waves Ship Positions
date/time (UTC)wind fromknots sea level pressurealtimeterstation pressurevisibilityair tempwater tempwave heightnotes
2014-Nov-23 04:46 135 1 gusting 3 16.1
2014-Nov-23 04:31 225 0 gusting 3 16.7
2014-Nov-23 04:16 090 16.7
2014-Nov-23 04:01 090 16.7
2014-Nov-23 03:46 225 16.7
2014-Nov-23 03:31 135 2 gusting 6 16.7
2014-Nov-23 03:16 135 0 gusting 3 16.7
2014-Nov-23 03:01 135 0 gusting 4 16.7
2014-Nov-23 02:56 135 16.7
2014-Nov-23 02:51 090 1 gusting 3 15.6
2014-Nov-23 02:46 090 15.6
2014-Nov-23 02:31 090 0 gusting 3 16.1
2014-Nov-23 02:16 135 1 gusting 3 16.1
2014-Nov-23 02:01 090 15.6
2014-Nov-23 01:56 135 1 gusting 3 16.1
2014-Nov-23 01:51 045 0 gusting 3 15.6
2014-Nov-23 01:46 135 15.6
2014-Nov-23 01:31 090 15.6
2014-Nov-23 01:16 090 0 gusting 1 15.6
2014-Nov-23 01:01 270 15.6
2014-Nov-23 00:56 270 16.1
2014-Nov-23 00:51 180 16.1
2014-Nov-23 00:46 135 16.1
2014-Nov-23 00:26 090 15.6
2014-Nov-23 00:16 090 0 gusting 2 15.6
2014-Nov-23 00:01 315 0 gusting 1 15.6
2014-Nov-22 23:56 045 0 gusting 1 15.6
2014-Nov-22 23:51 315 15.0
2014-Nov-22 23:46 225 15.6
2014-Nov-22 23:31 090 15.6
2014-Nov-22 23:16 15.6
2014-Nov-22 23:01 15.6
2014-Nov-22 22:56 090 15.6
2014-Nov-22 22:51 15.6
2014-Nov-22 22:46 045 16.1
2014-Nov-22 22:31 090 16.1
2014-Nov-22 22:16 045 15.6
2014-Nov-22 22:01 16.1
2014-Nov-22 21:56 15.6
2014-Nov-22 21:51 045 16.1
2014-Nov-22 21:46 15.6
2014-Nov-22 21:31 16.1
2014-Nov-22 21:16 090 0 gusting 3 16.7
2014-Nov-22 21:01 315 0 gusting 2 16.1
2014-Nov-22 20:56 203 16.7
2014-Nov-22 20:51 045 16.7
2014-Nov-22 20:46 315 16.7
2014-Nov-22 20:31 16.7
2014-Nov-22 20:16 17.2
2014-Nov-22 20:01 225 0 gusting 3 16.7
2014-Nov-22 19:56 135 1 gusting 3 17.2
2014-Nov-22 19:51 180 17.2
2014-Nov-22 19:46 225 1 gusting 5 17.2
2014-Nov-22 19:41 315 0 gusting 4 16.7
2014-Nov-22 19:36 090 0 gusting 3 17.2
2014-Nov-22 19:31 090 0 gusting 1 16.7
2014-Nov-22 19:26 090 16.7
2014-Nov-22 19:21 090 16.7
2014-Nov-22 19:16 225 16.7
2014-Nov-22 19:11 17.2
2014-Nov-22 19:06 17.2
2014-Nov-22 19:01 180 16.7
2014-Nov-22 18:56 180 16.7
2014-Nov-22 18:51 045 16.7
2014-Nov-22 18:46 090 16.7
2014-Nov-22 18:31 090 0 gusting 3 17.2
2014-Nov-22 18:16 17.2
2014-Nov-22 18:01 17.8
2014-Nov-22 17:56 045 1 gusting 2 17.8
2014-Nov-22 17:51 045 0 gusting 2 17.8
2014-Nov-22 17:46 16.7
2014-Nov-22 17:31 090 17.8
2014-Nov-22 17:16 045 17.8
2014-Nov-22 17:01 045 17.8
2014-Nov-22 16:46 18.3
2014-Nov-22 16:31 045 18.9
2014-Nov-22 16:16 045 18.9
2014-Nov-22 16:01 315 1 gusting 5 19.4
2014-Nov-22 15:46 19.4
2014-Nov-22 15:31 045 2 gusting 6 20.6
2014-Nov-22 15:16 090 1 gusting 4 20.0
2014-Nov-22 15:01 045 1 gusting 6 20.6
2014-Nov-22 14:56 21.1
2014-Nov-22 14:51 090 1 gusting 8 20.6
2014-Nov-22 14:46 045 2 gusting 6 20.6
2014-Nov-22 14:31 21.7
2014-Nov-22 14:16 045 0 gusting 4 21.7
2014-Nov-22 14:01 21.7
2014-Nov-22 13:56 315 1 gusting 3 21.7
2014-Nov-22 13:51 045 1 gusting 4 21.1
2014-Nov-22 13:46 21.1
2014-Nov-22 13:31 180 0 gusting 2 20.6
2014-Nov-22 13:16 225 20.6
2014-Nov-22 13:01 180 0 gusting 6 19.4
2014-Nov-22 12:56 293 1 gusting 3 20.0
2014-Nov-22 12:51 090 1 gusting 5 20.0
2014-Nov-22 12:46 090 1 gusting 4 20.0
2014-Nov-22 12:41 045 1 gusting 4 20.0
2014-Nov-22 12:36 315 19.4
2014-Nov-22 12:31 045 1 gusting 4 19.4
2014-Nov-22 12:26 19.4
2014-Nov-22 12:21 135 0 gusting 3 19.4
2014-Nov-22 12:16 135 20.0
2014-Nov-22 12:11 19.4
2014-Nov-22 12:06 045 1 gusting 3 19.4
2014-Nov-22 12:01 315 0 gusting 3 20.0
2014-Nov-22 11:56 045 0 gusting 3 20.0
2014-Nov-22 11:51 045 20.0
2014-Nov-22 11:46 20.0
2014-Nov-22 11:31 18.9
2014-Nov-22 11:16 090 1 gusting 4 17.8
2014-Nov-22 11:01 19.4
2014-Nov-22 10:56 315 1 gusting 3 18.9
2014-Nov-22 10:51 090 18.3
2014-Nov-22 10:46 17.8
2014-Nov-22 10:31 045 2 gusting 4 17.8
2014-Nov-22 10:16 16.7
2014-Nov-22 10:01 135 0 gusting 5 15.6
2014-Nov-22 09:56 090 1 gusting 3 16.1
2014-Nov-22 09:51 16.7
2014-Nov-22 09:46 15.0
2014-Nov-22 09:31 090 1 gusting 4 14.4
2014-Nov-22 09:16 315 0 gusting 2 13.9
2014-Nov-22 09:01 045 13.3
2014-Nov-22 08:56 13.3
2014-Nov-22 08:51 13.3
2014-Nov-22 08:46 13.9
2014-Nov-22 08:31 090 14.4
2014-Nov-22 08:16 180 13.9
2014-Nov-22 08:01 090 1 gusting 4 12.8
2014-Nov-22 07:56 090 13.3
2014-Nov-22 07:51 12.2
2014-Nov-22 07:46 045 12.8
2014-Nov-22 07:31 090 0 gusting 1 12.2
2014-Nov-22 07:16 11.7
2014-Nov-22 07:01 315 0 gusting 1 12.2
2014-Nov-22 06:46 12.2
2014-Nov-22 06:31 12.8
2014-Nov-22 06:16 12.2
2014-Nov-22 06:01 12.2
2014-Nov-22 05:56 045 11.7
2014-Nov-22 05:51 045 11.7
2014-Nov-22 05:46 12.2
2014-Nov-22 05:31 11.7
2014-Nov-22 05:16 045 1 gusting 2 12.2
2014-Nov-22 05:01 12.2
2014-Nov-22 04:56 12.2
2014-Nov-22 04:51 090 11.7
2014-Nov-22 04:46 11.7
2014-Nov-22 04:31 135 11.7
2014-Nov-22 04:16 11.7
2014-Nov-22 04:01 090 0 gusting 2 11.7
2014-Nov-22 03:56 045 11.7
2014-Nov-22 03:51 11.1
2014-Nov-22 03:46 11.7
2014-Nov-22 03:31 11.7
2014-Nov-22 03:16 11.7
2014-Nov-22 03:01 090 0 gusting 2 11.7
2014-Nov-22 02:56 315 12.2
2014-Nov-22 02:51 090 11.7
2014-Nov-22 02:46 045 0 gusting 3 12.2
2014-Nov-22 02:31 11.7
2014-Nov-22 02:16 12.2
2014-Nov-22 02:01 045 11.7
2014-Nov-22 01:56 11.7
2014-Nov-22 01:51 090 0 gusting 2 11.7
2014-Nov-22 01:46 045 0 gusting 2 11.7
2014-Nov-22 01:31 315 11.7
2014-Nov-22 01:16 090 11.7
2014-Nov-22 01:01 12.2
2014-Nov-22 00:56 11.7
2014-Nov-22 00:51 135 0 gusting 2 11.7
2014-Nov-22 00:46 090 11.7
2014-Nov-22 00:41 045 0 gusting 3 12.2
2014-Nov-22 00:36 045 11.7
2014-Nov-22 00:31 12.2
2014-Nov-22 00:26 225 11.7
2014-Nov-22 00:21 045 11.7
2014-Nov-22 00:16 090 12.2
2014-Nov-22 00:11 180 12.2
2014-Nov-22 00:06 090 12.2
2014-Nov-22 00:01 12.2
2014-Nov-21 23:56 045 12.2
2014-Nov-21 23:51 090 12.2
2014-Nov-21 23:46 12.2
2014-Nov-21 23:31 12.8
2014-Nov-21 23:16 12.8
2014-Nov-21 23:01 13.3
2014-Nov-21 22:56 12.8
2014-Nov-21 22:51 13.3
2014-Nov-21 22:46 045 1 gusting 3 12.8
2014-Nov-21 22:41 045 0 gusting 1 12.8
2014-Nov-21 22:36 135 13.3
2014-Nov-21 22:31 13.3
2014-Nov-21 22:26 225 1 gusting 2 13.3
2014-Nov-21 22:21 12.8
2014-Nov-21 22:16 13.3
2014-Nov-21 22:11 12.8
2014-Nov-21 22:06 045 13.3
2014-Nov-21 22:01 045 13.3
2014-Nov-21 21:56 135 2 gusting 4 12.8
2014-Nov-21 21:51 090 0 gusting 3 12.8
2014-Nov-21 21:46 090 1 gusting 3 12.8
2014-Nov-21 21:31 068 13.3
2014-Nov-21 21:16 315 1 gusting 4 13.3
2014-Nov-21 21:01 090 1 gusting 3 13.3
2014-Nov-21 20:56 090 1 gusting 3 13.3
2014-Nov-21 20:51 090 13.3
2014-Nov-21 20:46 13.3
2014-Nov-21 20:41 090 0 gusting 3 13.9
2014-Nov-21 20:36 023 0 gusting 1 13.3
2014-Nov-21 20:31 090 13.9
2014-Nov-21 20:26 090 1 gusting 3 13.9
2014-Nov-21 20:21 13.9
2014-Nov-21 20:16 045 13.9
2014-Nov-21 20:11 135 13.9
2014-Nov-21 20:06 045 0 gusting 1 13.9
2014-Nov-21 20:01 270 13.9
2014-Nov-21 19:56 14.4
2014-Nov-21 19:51 14.4
2014-Nov-21 19:46 045 2 gusting 4 14.4
2014-Nov-21 19:41 045 0 gusting 5 13.9
2014-Nov-21 19:36 14.4
2014-Nov-21 19:31 090 0 gusting 1 14.4
2014-Nov-21 19:26 045 0 gusting 2 14.4
2014-Nov-21 19:21 090 0 gusting 2 15.0
2014-Nov-21 19:16 045 15.0
2014-Nov-21 19:11 045 14.4
2014-Nov-21 19:06 15.0
2014-Nov-21 19:01 15.0
2014-Nov-21 18:56 045 15.0
2014-Nov-21 18:51 068 14.4
2014-Nov-21 18:46 090 15.0
2014-Nov-21 18:31 15.0
2014-Nov-21 18:16 045 1 gusting 1 15.0
2014-Nov-21 18:01 090 0 gusting 2 15.0
2014-Nov-21 17:56 090 0 gusting 1 15.6
2014-Nov-21 17:51 15.6
2014-Nov-21 17:46 090 15.6
2014-Nov-21 17:31 15.6
2014-Nov-21 17:16 045 15.6
2014-Nov-21 17:01 16.1
2014-Nov-21 16:56 045 0 gusting 3 16.1
2014-Nov-21 16:51 045 16.7
2014-Nov-21 16:46 16.7
2014-Nov-21 16:31 090 16.7
2014-Nov-21 16:16 17.8
2014-Nov-21 16:01 045 1 gusting 3 17.8
2014-Nov-21 15:56 17.8
2014-Nov-21 15:51 17.8
2014-Nov-21 15:46 090 1 gusting 3 17.8
2014-Nov-21 15:31 090 18.9
2014-Nov-21 15:16 18.9
2014-Nov-21 15:01 045 1 gusting 2 18.9
2014-Nov-21 14:56 045 0 gusting 3 19.4
2014-Nov-21 14:51 315 18.3
2014-Nov-21 14:46 18.3
2014-Nov-21 14:31 18.9
2014-Nov-21 14:16 19.4
2014-Nov-21 14:01 045 0 gusting 6 18.9
2014-Nov-21 13:56 18.9
2014-Nov-21 13:51 045 0 gusting 5 19.4
2014-Nov-21 13:46 045 20.0
2014-Nov-21 13:31 293 0 gusting 2 19.4
2014-Nov-21 13:16 315 17.8
2014-Nov-21 13:01 045 0 gusting 2 17.8
2014-Nov-21 12:56 045 1 gusting 3 17.8
2014-Nov-21 12:51 090 0 gusting 3 18.3
2014-Nov-21 12:46 315 18.3
2014-Nov-21 12:31 18.9
2014-Nov-21 12:16 090 0 gusting 4 17.8
2014-Nov-21 12:01 090 0 gusting 3 18.3
2014-Nov-21 11:46 17.8
2014-Nov-21 11:31 315 0 gusting 3 17.2
2014-Nov-21 11:16 293 1 gusting 3 16.7
2014-Nov-21 11:01 315 0 gusting 2 16.1
2014-Nov-21 10:56 16.7
2014-Nov-21 10:51 045 0 gusting 3 16.1
2014-Nov-21 10:46 090 15.6
2014-Nov-21 10:31 090 16.7
2014-Nov-21 10:16 315 1 gusting 3 15.0
2014-Nov-21 10:01 15.0
2014-Nov-21 09:46 045 1 gusting 5 13.9
2014-Nov-21 09:31 045 0 gusting 2 12.8
2014-Nov-21 09:16 045 2 gusting 6 12.2
2014-Nov-21 09:01 12.2
2014-Nov-21 08:56 11.7
2014-Nov-21 08:51 12.8
2014-Nov-21 08:46 315 0 gusting 2 12.2
2014-Nov-21 08:31 090 0 gusting 2 12.8
2014-Nov-21 08:16 315 11.1
2014-Nov-21 08:01 315 10.0
2014-Nov-21 07:56 090 0 gusting 1 9.4
2014-Nov-21 07:51 315 10.0
2014-Nov-21 07:46 315 9.4
2014-Nov-21 07:31 9.4
2014-Nov-21 07:16 045 8.9
2014-Nov-21 07:01 090 8.9
2014-Nov-21 06:56 9.4
2014-Nov-21 06:51 9.4
2014-Nov-21 06:46 8.9
2014-Nov-21 06:31 8.9
2014-Nov-21 06:16 090 0 gusting 2 9.4
2014-Nov-21 06:01 9.4